User: anonymous   Login
Location: Unspecified
(0.0000°N, 0.0000°E)
Time: 23:55:29
(UTC+00:00)
Language:

TELKOM 3S - Orbit

View from above orbital plane
View from above orbital plane
View from above satellite
View from above satellite

Ground track
Ground track

The orbit is defined by the following mean orbital elements,

1 41944U          26145.60710612 +.00000000 +00000-0 +00000-0 0 00006
2 41944   0.0183 287.7532 0002365 138.4620 153.5417  1.00271488    07
Epoch (UTC): 25 May 2026 14:34:13
Eccentricity: 0.0002365
inclination: 0.0183°
perigee height: 35777 km
apogee height: 35797 km
right ascension of ascending node: 287.7532°
argument of perigee: 138.4620°
revolutions per day: 1.00271488
mean anomaly at epoch: 153.5417°

The dashed part of the orbit path shows where the satellite is in the earth's shadow,  

DLR